SAS1712 EKCH-EFHK

Flight info

Callsign SAS1712
Flight time 1h 18m
Altitude 37000
Route KEMAX Q44 IDPAL DCT MOVIS DCT ALAMI DCT OKEVU DCT EVADI Y370 DIVAM
Aircraft A321/M-SDE3FGIJ1RWXY/LB1

Departure

Time 2026-05-07 16:06
Airport Copenhagen Kastrup Airport (EKCH)

Arrival

Time 2026-05-07 17:25
Airport Helsinki Vantaa Airport (EFHK)
Time Latitude Longitude Altitude Speed Heading
2026-05-07 15:27 55.62710 12.64453 17 ft 0 kts 101°
2026-05-07 15:58 55.62712 12.64438 17 ft 4 kts 103°
2026-05-07 15:58 55.62720 12.64394 20 ft 4 kts 125°
2026-05-07 15:58 55.62735 12.64372 21 ft 4 kts 199°
2026-05-07 15:58 55.62727 12.64363 18 ft 4 kts 206°
2026-05-07 15:59 55.62708 12.64346 17 ft 4 kts 206°
2026-05-07 15:59 55.62683 12.64328 19 ft 4 kts 201°
2026-05-07 15:59 55.62666 12.64316 17 ft 0 kts 201°
2026-05-07 16:02 55.62662 12.64313 17 ft 3 kts 201°
2026-05-07 16:02 55.62619 12.64277 18 ft 12 kts 210°
2026-05-07 16:02 55.62533 12.64219 17 ft 14 kts 158°
2026-05-07 16:02 55.62460 12.64363 17 ft 17 kts 126°
2026-05-07 16:03 55.62363 12.64436 17 ft 17 kts 190°
2026-05-07 16:03 55.62221 12.64402 15 ft 24 kts 169°
2026-05-07 16:03 55.62109 12.64437 17 ft 25 kts 168°
2026-05-07 16:03 55.61882 12.64517 17 ft 26 kts 170°
2026-05-07 16:04 55.61710 12.64568 17 ft 24 kts 179°
2026-05-07 16:04 55.61561 12.64438 18 ft 22 kts 213°
2026-05-07 16:04 55.61431 12.64285 17 ft 23 kts 213°
2026-05-07 16:04 55.61339 12.64180 17 ft 24 kts 213°
2026-05-07 16:05 55.61198 12.64160 17 ft 22 kts 129°
2026-05-07 16:05 55.61217 12.64430 17 ft 26 kts 71°
2026-05-07 16:05 55.61314 12.64815 18 ft 44 kts 54°
2026-05-07 16:05 55.61663 12.65393 16 ft 104 kts 41°
2026-05-07 16:06 55.62375 12.66470 34 ft 161 kts 38°
2026-05-07 16:06 55.63232 12.67785 753 ft 159 kts 39°
2026-05-07 16:06 55.64061 12.69071 1498 ft 163 kts 40°
2026-05-07 16:06 55.64963 12.70448 1872 ft 180 kts 39°
2026-05-07 16:07 55.65949 12.71930 2198 ft 200 kts 38°
2026-05-07 16:07 55.67086 12.73607 2573 ft 221 kts 37°
2026-05-07 16:07 55.68297 12.75376 3179 ft 234 kts 37°
2026-05-07 16:07 55.69590 12.77291 3679 ft 250 kts 38°
2026-05-07 16:08 55.70935 12.79326 4386 ft 257 kts 39°
2026-05-07 16:08 55.72304 12.81406 5190 ft 261 kts 39°
2026-05-07 16:08 55.73691 12.83503 5992 ft 264 kts 39°
2026-05-07 16:08 55.75096 12.85642 6749 ft 268 kts 40°
2026-05-07 16:09 55.76501 12.87846 7517 ft 271 kts 41°
2026-05-07 16:09 55.77909 12.90079 8334 ft 272 kts 41°
2026-05-07 16:09 55.79323 12.92329 9101 ft 275 kts 41°
2026-05-07 16:09 55.80756 12.94603 9892 ft 277 kts 42°
2026-05-07 16:10 55.82217 12.96916 10364 ft 291 kts 41°
2026-05-07 16:10 55.83788 12.99397 10514 ft 313 kts 41°
2026-05-07 16:10 55.85458 13.02030 10874 ft 325 kts 41°
2026-05-07 16:10 55.87164 13.04722 11461 ft 331 kts 41°
2026-05-07 16:11 55.88902 13.07467 12012 ft 337 kts 40°
2026-05-07 16:11 55.90669 13.10260 12593 ft 342 kts 41°
2026-05-07 16:11 55.92465 13.13102 13182 ft 347 kts 41°
2026-05-07 16:11 55.94281 13.15986 13769 ft 352 kts 41°
2026-05-07 16:12 55.96128 13.18924 14296 ft 357 kts 41°
2026-05-07 16:12 55.97992 13.21893 14849 ft 361 kts 40°
2026-05-07 16:12 55.99874 13.24896 15383 ft 365 kts 40°
2026-05-07 16:12 56.01775 13.27937 15938 ft 368 kts 41°
2026-05-07 16:13 56.03694 13.31009 16499 ft 372 kts 39°
2026-05-07 16:13 56.05633 13.34115 17029 ft 376 kts 40°
2026-05-07 16:13 56.07587 13.37252 17594 ft 379 kts 40°
2026-05-07 16:13 56.09557 13.40422 18102 ft 383 kts 40°
2026-05-07 16:14 56.11543 13.43623 18626 ft 386 kts 41°
2026-05-07 16:14 56.13361 13.47192 19064 ft 391 kts 52°
2026-05-07 16:14 56.14944 13.51187 19529 ft 394 kts 53°
2026-05-07 16:14 56.16508 13.55154 20015 ft 396 kts 53°
2026-05-07 16:15 56.18128 13.59262 20464 ft 399 kts 53°
2026-05-07 16:15 56.19738 13.63342 20919 ft 402 kts 53°
2026-05-07 16:15 56.21337 13.67397 21343 ft 405 kts 53°
2026-05-07 16:15 56.22965 13.71542 21802 ft 407 kts 53°
2026-05-07 16:16 56.24602 13.75721 22236 ft 410 kts 54°
2026-05-07 16:16 56.26245 13.79922 22684 ft 412 kts 53°
2026-05-07 16:16 56.27901 13.84159 23101 ft 415 kts 54°
2026-05-07 16:16 56.29565 13.88426 23520 ft 418 kts 54°
2026-05-07 16:17 56.31232 13.92707 23944 ft 419 kts 54°
2026-05-07 16:17 56.32906 13.97017 24333 ft 421 kts 54°
2026-05-07 16:17 56.34589 14.01354 24670 ft 423 kts 54°
2026-05-07 16:17 56.36279 14.05718 25037 ft 425 kts 54°
2026-05-07 16:18 56.37978 14.10107 25413 ft 427 kts 54°
2026-05-07 16:18 56.39682 14.14511 25788 ft 429 kts 54°
2026-05-07 16:18 56.41391 14.18937 26159 ft 431 kts 54°
2026-05-07 16:18 56.43102 14.23393 26526 ft 432 kts 54°
2026-05-07 16:19 56.44814 14.27864 26892 ft 434 kts 54°
2026-05-07 16:19 56.46535 14.32360 27244 ft 436 kts 54°
2026-05-07 16:19 56.48270 14.36868 27596 ft 437 kts 54°
2026-05-07 16:19 56.50019 14.41380 27951 ft 439 kts 53°
2026-05-07 16:20 56.51780 14.45910 28306 ft 441 kts 53°
2026-05-07 16:20 56.53547 14.50463 28660 ft 443 kts 53°
2026-05-07 16:20 56.55316 14.55041 28953 ft 445 kts 53°
2026-05-07 16:20 56.57094 14.59659 29272 ft 447 kts 53°
2026-05-07 16:21 56.58876 14.64304 29595 ft 449 kts 54°
2026-05-07 16:21 56.60663 14.68976 29902 ft 452 kts 54°
2026-05-07 16:21 56.62454 14.73674 30197 ft 453 kts 54°
2026-05-07 16:21 56.64248 14.78394 30438 ft 455 kts 54°
2026-05-07 16:22 56.66050 14.83133 30696 ft 456 kts 54°
2026-05-07 16:22 56.67833 14.87822 30935 ft 458 kts 54°
2026-05-07 16:22 56.69646 14.92590 31160 ft 459 kts 54°
2026-05-07 16:22 56.71458 14.97369 31448 ft 458 kts 54°
2026-05-07 16:23 56.73263 15.02146 31776 ft 457 kts 54°
2026-05-07 16:23 56.75063 15.06918 32103 ft 457 kts 53°
2026-05-07 16:23 56.76858 15.11689 32369 ft 457 kts 53°
2026-05-07 16:23 56.78652 15.16467 32661 ft 456 kts 53°
2026-05-07 16:24 56.80442 15.21244 32961 ft 456 kts 53°
2026-05-07 16:24 56.82229 15.26013 33266 ft 455 kts 53°
2026-05-07 16:24 56.84011 15.30776 33572 ft 454 kts 53°
2026-05-07 16:24 56.85790 15.35542 33877 ft 453 kts 53°
2026-05-07 16:25 56.87557 15.40295 34159 ft 452 kts 53°
2026-05-07 16:25 56.89323 15.45065 34363 ft 453 kts 54°
2026-05-07 16:25 56.91091 15.49846 34542 ft 454 kts 54°
2026-05-07 16:25 56.92862 15.54638 34719 ft 455 kts 54°
2026-05-07 16:26 56.94635 15.59447 34904 ft 456 kts 54°
2026-05-07 16:26 56.96413 15.64279 35073 ft 458 kts 54°
2026-05-07 16:26 56.98197 15.69139 35222 ft 460 kts 54°
2026-05-07 16:26 56.99986 15.74017 35411 ft 461 kts 54°
2026-05-07 16:27 57.01776 15.78902 35589 ft 462 kts 54°
2026-05-07 16:27 57.03569 15.83807 35768 ft 463 kts 54°
2026-05-07 16:27 57.05362 15.88722 35951 ft 464 kts 54°
2026-05-07 16:27 57.07156 15.93658 36126 ft 465 kts 55°
2026-05-07 16:28 57.08952 15.98605 36297 ft 466 kts 55°
2026-05-07 16:28 57.10751 16.03565 36459 ft 466 kts 55°
2026-05-07 16:28 57.12548 16.08537 36628 ft 467 kts 55°
2026-05-07 16:28 57.14347 16.13523 36782 ft 468 kts 55°
2026-05-07 16:29 57.16147 16.18515 36947 ft 468 kts 55°
2026-05-07 16:29 57.17945 16.23517 37084 ft 469 kts 55°
2026-05-07 16:29 57.19751 16.28557 37120 ft 472 kts 55°
2026-05-07 16:30 57.23565 16.38416 37120 ft 472 kts 49°
2026-05-07 16:30 57.27703 16.47837 37115 ft 472 kts 50°
2026-05-07 16:31 57.31833 16.57289 37118 ft 472 kts 50°
2026-05-07 16:31 57.35928 16.66705 37120 ft 473 kts 50°
2026-05-07 16:32 57.40048 16.76213 37139 ft 474 kts 50°
2026-05-07 16:32 57.44165 16.85760 37139 ft 474 kts 50°
2026-05-07 16:33 57.48279 16.95355 37138 ft 475 kts 50°
2026-05-07 16:33 57.52391 17.04966 37144 ft 475 kts 50°
2026-05-07 16:33 57.54444 17.09772 36867 ft 474 kts 50°
2026-05-07 16:34 57.56495 17.14577 36292 ft 472 kts 50°
2026-05-07 16:34 57.58522 17.19341 35874 ft 467 kts 50°
2026-05-07 16:34 57.60530 17.24067 35391 ft 463 kts 50°
2026-05-07 16:34 57.62516 17.28761 35122 ft 459 kts 50°
2026-05-07 16:35 57.64490 17.33443 35117 ft 459 kts 50°
2026-05-07 16:35 57.68445 17.42836 35117 ft 460 kts 50°
2026-05-07 16:36 57.72397 17.52252 35120 ft 460 kts 50°
2026-05-07 16:36 57.76342 17.61688 35120 ft 460 kts 50°
2026-05-07 16:37 57.80279 17.71143 35148 ft 461 kts 49°
2026-05-07 16:37 57.84220 17.80655 35137 ft 462 kts 50°
2026-05-07 16:38 57.88166 17.90217 35135 ft 463 kts 50°
2026-05-07 16:38 57.92105 17.99812 35136 ft 464 kts 50°
2026-05-07 16:39 57.96046 18.09436 35140 ft 464 kts 50°
2026-05-07 16:39 57.99957 18.19023 35145 ft 465 kts 50°
2026-05-07 16:40 58.03892 18.28698 35159 ft 465 kts 50°
2026-05-07 16:40 58.07831 18.38415 35155 ft 466 kts 50°
2026-05-07 16:41 58.11757 18.48168 35151 ft 467 kts 50°
2026-05-07 16:41 58.15681 18.57966 35153 ft 467 kts 50°
2026-05-07 16:42 58.19597 18.67781 35154 ft 467 kts 50°
2026-05-07 16:42 58.23516 18.77612 35171 ft 468 kts 50°
2026-05-07 16:43 58.27448 18.87504 35151 ft 469 kts 50°
2026-05-07 16:43 58.31374 18.97423 35145 ft 470 kts 50°
2026-05-07 16:44 58.35279 19.07389 35149 ft 470 kts 50°
2026-05-07 16:44 58.39178 19.17381 35154 ft 470 kts 50°
2026-05-07 16:45 58.43077 19.27373 35150 ft 470 kts 50°
2026-05-07 16:45 58.46948 19.37336 35164 ft 470 kts 50°
2026-05-07 16:46 58.50834 19.47402 35151 ft 471 kts 50°
2026-05-07 16:46 58.54717 19.57513 35151 ft 471 kts 51°
2026-05-07 16:47 58.58603 19.67637 35152 ft 472 kts 50°
2026-05-07 16:47 58.62490 19.77778 35153 ft 472 kts 51°
2026-05-07 16:48 58.66366 19.87969 35163 ft 473 kts 51°
2026-05-07 16:48 58.70235 19.98220 35146 ft 474 kts 51°
2026-05-07 16:49 58.74104 20.08519 35142 ft 475 kts 51°
2026-05-07 16:49 58.77975 20.18830 35141 ft 475 kts 51°
2026-05-07 16:50 58.81817 20.29099 35149 ft 475 kts 51°
2026-05-07 16:50 58.85673 20.39475 35181 ft 476 kts 51°
2026-05-07 16:51 58.89525 20.49906 35143 ft 477 kts 51°
2026-05-07 16:51 58.93383 20.60385 35139 ft 479 kts 51°
2026-05-07 16:52 58.97246 20.70896 35140 ft 479 kts 51°
2026-05-07 16:52 59.01101 20.81446 35115 ft 479 kts 52°
2026-05-07 16:53 59.04941 20.92038 35130 ft 480 kts 53°
2026-05-07 16:53 59.08562 21.02943 35168 ft 481 kts 56°
2026-05-07 16:54 59.11976 21.14132 35157 ft 481 kts 57°
2026-05-07 16:54 59.15380 21.25341 35147 ft 480 kts 56°
2026-05-07 16:55 59.18835 21.36493 35144 ft 480 kts 56°
2026-05-07 16:55 59.22802 21.46766 35140 ft 469 kts 36°
2026-05-07 16:56 59.26994 21.53458 35166 ft 468 kts 34°
2026-05-07 16:56 59.34606 21.65489 35133 ft 469 kts 34°
2026-05-07 16:57 59.39681 21.73538 35127 ft 469 kts 34°
2026-05-07 16:57 59.42040 21.78017 35119 ft 476 kts 49°
2026-05-07 16:57 59.43728 21.83632 35116 ft 482 kts 66°
2026-05-07 16:58 59.44582 21.89992 35090 ft 483 kts 84°
2026-05-07 16:58 59.44551 21.96567 35095 ft 481 kts 97°
2026-05-07 16:58 59.43704 22.09619 35094 ft 482 kts 99°
2026-05-07 16:59 59.42803 22.22682 34770 ft 481 kts 99°
2026-05-07 16:59 59.42348 22.29173 34329 ft 478 kts 99°
2026-05-07 16:59 59.41893 22.35612 33873 ft 475 kts 99°
2026-05-07 17:00 59.41459 22.42035 33299 ft 473 kts 96°
2026-05-07 17:00 59.41540 22.48461 32770 ft 470 kts 79°
2026-05-07 17:00 59.42404 22.54502 32249 ft 464 kts 63°
2026-05-07 17:00 59.44008 22.59907 31692 ft 454 kts 47°
2026-05-07 17:01 59.46001 22.64673 31165 ft 451 kts 46°
2026-05-07 17:01 59.47997 22.69405 30672 ft 448 kts 46°
2026-05-07 17:01 59.49972 22.74120 30212 ft 445 kts 46°
2026-05-07 17:01 59.51924 22.78817 29671 ft 442 kts 46°
2026-05-07 17:02 59.53859 22.83490 29151 ft 438 kts 46°
2026-05-07 17:02 59.55793 22.88160 28198 ft 445 kts 46°
2026-05-07 17:02 59.57772 22.92929 27568 ft 452 kts 46°
2026-05-07 17:02 59.59778 22.97774 27305 ft 458 kts 47°
2026-05-07 17:03 59.61789 23.02650 27040 ft 458 kts 47°
2026-05-07 17:03 59.63793 23.07526 26774 ft 457 kts 47°
2026-05-07 17:03 59.65791 23.12400 26515 ft 456 kts 47°
2026-05-07 17:03 59.67781 23.17266 26088 ft 453 kts 47°
2026-05-07 17:04 59.69756 23.22105 25638 ft 450 kts 47°
2026-05-07 17:04 59.71715 23.26915 25150 ft 447 kts 47°
2026-05-07 17:04 59.73660 23.31704 24685 ft 444 kts 47°
2026-05-07 17:04 59.75586 23.36461 24196 ft 441 kts 47°
2026-05-07 17:05 59.77502 23.41194 23715 ft 438 kts 47°
2026-05-07 17:05 59.79407 23.45900 23154 ft 435 kts 47°
2026-05-07 17:05 59.81290 23.50562 22697 ft 431 kts 47°
2026-05-07 17:05 59.83164 23.55208 22226 ft 429 kts 47°
2026-05-07 17:06 59.84960 23.59924 21777 ft 429 kts 54°
2026-05-07 17:06 59.86448 23.65058 21323 ft 427 kts 58°
2026-05-07 17:06 59.87890 23.70197 20860 ft 423 kts 58°
2026-05-07 17:06 59.89314 23.75300 20406 ft 419 kts 58°
2026-05-07 17:07 59.90718 23.80350 19973 ft 415 kts 58°
2026-05-07 17:07 59.91965 23.85531 19519 ft 413 kts 65°
2026-05-07 17:07 59.93085 23.90780 19065 ft 410 kts 65°
2026-05-07 17:07 59.94192 23.95976 18625 ft 406 kts 65°
2026-05-07 17:08 59.95291 24.01147 18166 ft 402 kts 65°
2026-05-07 17:08 59.96375 24.06260 17707 ft 399 kts 65°
2026-05-07 17:08 59.97449 24.11335 17274 ft 395 kts 65°
2026-05-07 17:08 59.98513 24.16364 16840 ft 391 kts 65°
2026-05-07 17:09 59.99564 24.21349 16445 ft 387 kts 65°
2026-05-07 17:09 60.00603 24.26296 15991 ft 385 kts 65°
2026-05-07 17:09 60.01624 24.31163 15748 ft 373 kts 65°
2026-05-07 17:09 60.02605 24.35863 15614 ft 359 kts 65°
2026-05-07 17:10 60.03544 24.40383 15432 ft 347 kts 65°
2026-05-07 17:10 60.04459 24.44796 15105 ft 341 kts 65°
2026-05-07 17:10 60.05365 24.49161 14726 ft 338 kts 65°
2026-05-07 17:10 60.06259 24.53481 14354 ft 334 kts 65°
2026-05-07 17:11 60.07147 24.57758 13986 ft 331 kts 63°
2026-05-07 17:11 60.08226 24.61767 13578 ft 325 kts 56°
2026-05-07 17:11 60.09384 24.65635 13171 ft 322 kts 56°
2026-05-07 17:11 60.10545 24.69439 12741 ft 319 kts 56°
2026-05-07 17:12 60.11706 24.73198 12344 ft 315 kts 55°
2026-05-07 17:12 60.12842 24.76869 11967 ft 312 kts 56°
2026-05-07 17:12 60.13983 24.80550 11592 ft 309 kts 56°
2026-05-07 17:12 60.15113 24.84192 11215 ft 306 kts 56°
2026-05-07 17:13 60.16237 24.87802 10850 ft 303 kts 56°
2026-05-07 17:13 60.17350 24.91372 10500 ft 300 kts 56°
2026-05-07 17:13 60.18458 24.94888 10160 ft 296 kts 56°
2026-05-07 17:13 60.19559 24.98356 9799 ft 293 kts 56°
2026-05-07 17:14 60.20649 25.01785 9406 ft 290 kts 56°
2026-05-07 17:14 60.21726 25.05184 9025 ft 287 kts 56°
2026-05-07 17:14 60.22788 25.08550 8652 ft 284 kts 56°
2026-05-07 17:14 60.23836 25.11884 8274 ft 281 kts 56°
2026-05-07 17:15 60.24871 25.15193 7899 ft 278 kts 56°
2026-05-07 17:15 60.25893 25.18470 7534 ft 275 kts 56°
2026-05-07 17:15 60.26903 25.21718 7184 ft 272 kts 56°
2026-05-07 17:15 60.27900 25.24937 6833 ft 269 kts 56°
2026-05-07 17:16 60.28883 25.28128 6497 ft 267 kts 56°
2026-05-07 17:16 60.29920 25.31187 6107 ft 262 kts 44°
2026-05-07 17:16 60.31370 25.33314 5691 ft 257 kts 21°
2026-05-07 17:16 60.33093 25.34063 5275 ft 254 kts 358°
2026-05-07 17:17 60.34793 25.33313 5018 ft 250 kts 334°
2026-05-07 17:17 60.36207 25.31249 5004 ft 255 kts 313°
2026-05-07 17:17 60.37348 25.28489 5004 ft 256 kts 310°
2026-05-07 17:17 60.38478 25.25698 5009 ft 257 kts 310°
2026-05-07 17:18 60.39606 25.22897 5009 ft 257 kts 310°
2026-05-07 17:18 60.40730 25.20104 5003 ft 253 kts 310°
2026-05-07 17:18 60.41805 25.17431 4997 ft 236 kts 310°
2026-05-07 17:18 60.42813 25.14921 4999 ft 226 kts 310°
2026-05-07 17:19 60.43803 25.12451 5004 ft 225 kts 310°
2026-05-07 17:19 60.44790 25.09988 5006 ft 225 kts 310°
2026-05-07 17:19 60.45780 25.07521 5007 ft 226 kts 310°
2026-05-07 17:19 60.46776 25.05042 4767 ft 225 kts 309°
2026-05-07 17:20 60.47756 25.02591 4634 ft 224 kts 309°
2026-05-07 17:20 60.48535 24.99880 4536 ft 225 kts 288°
2026-05-07 17:20 60.48713 24.96739 4347 ft 229 kts 266°
2026-05-07 17:20 60.48215 24.93619 3933 ft 233 kts 243°
2026-05-07 17:21 60.47462 24.90815 3530 ft 222 kts 238°
2026-05-07 17:21 60.46434 24.88480 3022 ft 226 kts 219°
2026-05-07 17:21 60.45089 24.87036 2715 ft 212 kts 198°
2026-05-07 17:21 60.43687 24.86593 2508 ft 200 kts 181°
2026-05-07 17:22 60.42332 24.87010 2281 ft 197 kts 165°
2026-05-07 17:22 60.41093 24.88142 2016 ft 195 kts 155°
2026-05-07 17:22 60.39923 24.89351 1755 ft 186 kts 156°
2026-05-07 17:22 60.38812 24.90499 1497 ft 173 kts 157°
2026-05-07 17:23 60.37779 24.91564 1279 ft 161 kts 157°
2026-05-07 17:23 60.36815 24.92556 1064 ft 150 kts 155°
2026-05-07 17:23 60.35903 24.93494 849 ft 141 kts 156°
2026-05-07 17:23 60.35035 24.94386 657 ft 141 kts 155°
2026-05-07 17:24 60.34167 24.95279 469 ft 139 kts 155°
2026-05-07 17:24 60.33324 24.96162 292 ft 138 kts 155°
2026-05-07 17:24 60.32479 24.97027 205 ft 128 kts 156°
2026-05-07 17:24 60.31784 24.97720 197 ft 89 kts 153°
2026-05-07 17:25 60.31386 24.98129 191 ft 39 kts 153°
2026-05-07 17:25 60.31162 24.98358 198 ft 35 kts 153°
2026-05-07 17:25 60.30984 24.98349 194 ft 23 kts 232°
2026-05-07 17:25 60.30967 24.98285 197 ft 1 kts 245°
2026-05-07 17:26 60.30980 24.98217 188 ft 12 kts 310°
2026-05-07 17:26 60.31087 24.98104 190 ft 20 kts 335°
2026-05-07 17:26 60.31212 24.97971 191 ft 21 kts 331°
2026-05-07 17:26 60.31262 24.97921 186 ft 1 kts 334°
2026-05-07 17:27 60.31267 24.97915 186 ft 1 kts 334°
2026-05-07 17:27 60.31273 24.97910 194 ft 0 kts 334°
2026-05-07 17:29 60.31296 24.97888 186 ft 8 kts 335°
2026-05-07 17:29 60.31343 24.97845 194 ft 7 kts 335°
2026-05-07 17:29 60.31382 24.97804 188 ft 8 kts 330°
2026-05-07 17:30 60.31444 24.97736 191 ft 10 kts 332°
2026-05-07 17:30 60.31499 24.97676 191 ft 8 kts 332°
2026-05-07 17:30 60.31544 24.97630 188 ft 7 kts 333°
2026-05-07 17:30 60.31643 24.97561 186 ft 16 kts 343°
2026-05-07 17:31 60.31718 24.97466 196 ft 16 kts 326°
2026-05-07 17:31 60.31818 24.97350 191 ft 16 kts 332°
2026-05-07 17:31 60.31910 24.97256 193 ft 14 kts 333°
2026-05-07 17:31 60.31998 24.97164 188 ft 15 kts 333°
2026-05-07 17:32 60.32087 24.97076 194 ft 13 kts 334°
2026-05-07 17:32 60.32161 24.96999 186 ft 11 kts 332°
2026-05-07 17:32 60.32226 24.96908 192 ft 12 kts 301°
2026-05-07 17:32 60.32218 24.96798 186 ft 13 kts 236°
2026-05-07 17:33 60.32141 24.96619 194 ft 11 kts 227°
2026-05-07 17:33 60.32091 24.96506 193 ft 12 kts 228°
2026-05-07 17:33 60.32027 24.96363 199 ft 15 kts 227°
2026-05-07 17:33 60.31962 24.96219 195 ft 13 kts 227°
2026-05-07 17:34 60.31900 24.96124 190 ft 10 kts 187°
2026-05-07 17:34 60.31859 24.96198 197 ft 8 kts 108°
2026-05-07 17:34 60.31834 24.96326 194 ft 11 kts 130°
2026-05-07 17:34 60.31813 24.96368 195 ft 1 kts 137°
2026-05-07 17:35 60.31810 24.96372 193 ft 1 kts 137°
2026-05-07 17:35 60.31806 24.96380 193 ft 0 kts 137°